| time (UTC) | temp F | wind direction | speed MPH | gust MPH | rain 1hr in | rain 24hr in | rain mn in | humidity % | barometer mb |
| 20260906103804 | 66 | 35 | 0.0 | 0.0 | 0.19 | 0.22 | 0.22 | 99 | 1019.0 |
| 20260906103303 | 66 | 260 | 0.0 | 0.0 | 0.66 | 0.22 | 0.22 | 99 | 1019.1 |
| 20260906102759 | 66 | 269 | 0.0 | 0.0 | 0.97 | 0.18 | 0.18 | 99 | 1019.0 |
| 20260906102257 | 66 | 243 | 0.0 | 0.0 | 0.54 | 0.10 | 0.10 | 99 | 1018.9 |
| 20260906101753 | 66 | 240 | 0.0 | 0.0 | 0.12 | 0.02 | 0.02 | 99 | 1019.0 |
| 20260906101248 | 66 | 246 | 1.0 | 1.0 | 0.00 | 0.00 | 0.00 | 99 | 1018.9 |
| 20260906100743 | 66 | 208 | 0.0 | 0.0 | 0.00 | 0.00 | 0.00 | 99 | 1018.7 |
| 20260906100242 | 66 | 208 | 0.0 | 0.0 | 0.00 | 0.00 | 0.00 | 99 | 1018.8 |
| 20260906095738 | 66 | 208 | 0.0 | 0.0 | 0.00 | 0.00 | 0.00 | 99 | 1018.7 |
| 20260906095233 | 65 | 208 | 0.0 | 0.0 | 0.00 | 0.00 | 0.00 | 99 | 1019.0 |
| 20260906094732 | 65 | 209 | 0.0 | 0.0 | 0.00 | 0.00 | 0.00 | 99 | 1018.7 |
| 20260906094227 | 65 | 210 | 0.0 | 0.0 | 0.00 | 0.00 | 0.00 | 99 | 1018.8 |
| 20260906093724 | 65 | 210 | 0.0 | 0.0 | 0.00 | 0.00 | 0.00 | 99 | 1018.6 |
| 20260906093219 | 65 | 257 | 1.0 | 1.0 | 0.00 | 0.00 | 0.00 | 99 | 1018.7 |
| 20260906092715 | 65 | 254 | 0.0 | 0.0 | 0.00 | 0.00 | 0.00 | 99 | 1018.6 |
| 20260906092214 | 65 | 265 | 0.0 | 0.0 | 0.00 | 0.00 | 0.00 | 99 | 1018.7 |
| 20260906091711 | 65 | 256 | 0.0 | 1.0 | 0.00 | 0.00 | 0.00 | 99 | 1018.5 |
| 20260906091207 | 65 | 256 | 0.0 | 1.0 | 0.00 | 0.00 | 0.00 | 99 | 1018.5 |
| 20260906090703 | 65 | 228 | 0.0 | 0.0 | 0.00 | 0.00 | 0.00 | 99 | 1018.6 |
| 20260906090202 | 65 | 229 | 0.0 | 0.0 | 0.00 | 0.00 | 0.00 | 99 | 1018.3 |
| 20260906085701 | 64 | 227 | 0.0 | 0.0 | 0.00 | 0.00 | 0.00 | 99 | 1018.3 |
| 20260906085200 | 64 | 220 | 0.0 | 0.0 | 0.00 | 0.00 | 0.00 | 99 | 1018.5 |
| 20260906084655 | 64 | 220 | 0.0 | 0.0 | 0.00 | 0.00 | 0.00 | 99 | 1018.5 |
| 20260906084154 | 64 | 221 | 0.0 | 0.0 | 0.00 | 0.00 | 0.00 | 99 | 1018.5 |
| 20260906083649 | 64 | 221 | 0.0 | 0.0 | 0.00 | 0.00 | 0.00 | 99 | 1018.5 |
| 20260906083145 | 64 | 221 | 0.0 | 0.0 | 0.00 | 0.00 | 0.00 | 99 | 1018.6 |
| 20260906082640 | 64 | 221 | 0.0 | 0.0 | 0.00 | 0.00 | 0.00 | 99 | 1018.6 |
| 20260906082135 | 64 | 216 | 0.0 | 0.0 | 0.00 | 0.00 | 0.00 | 99 | 1018.5 |
| 20260906081626 | 64 | 204 | 0.0 | 0.0 | 0.00 | 0.00 | 0.00 | 99 | 1018.7 |
| 20260906081121 | 64 | 241 | 0.0 | 0.0 | 0.00 | 0.00 | 0.00 | 99 | 1018.5 |
| 20260906080617 | 64 | 254 | 0.0 | 2.0 | 0.00 | 0.00 | 0.00 | 99 | 1018.6 |
| 20260906080113 | 63 | 214 | 0.0 | 1.0 | 0.00 | 0.00 | 0.00 | 99 | 1018.5 |
| 20260906075607 | 63 | 247 | 0.0 | 1.0 | 0.00 | 0.00 | 0.00 | 99 | 1018.5 |
| 20260906075102 | 63 | 248 | 0.0 | 0.0 | 0.00 | 0.00 | 0.00 | 99 | 1018.3 |
| 20260906074557 | 63 | 210 | 0.0 | 0.0 | 0.00 | 0.00 | 0.00 | 99 | 1018.5 |
| 20260906074055 | 63 | 210 | 0.0 | 0.0 | 0.00 | 0.00 | 0.00 | 99 | 1018.7 |
| 20260906073550 | 63 | 199 | 0.0 | 0.0 | 0.00 | 0.00 | 0.00 | 99 | 1018.7 |
| 20260906073046 | 63 | 199 | 0.0 | 0.0 | 0.00 | 0.00 | 0.00 | 99 | 1018.7 |
| 20260906072541 | 63 | 199 | 0.0 | 0.0 | 0.00 | 0.00 | 0.00 | 99 | 1018.6 |
| 20260906072037 | 64 | 199 | 0.0 | 0.0 | 0.00 | 0.00 | 0.00 | 99 | 1018.7 |
| 20260906071533 | 64 | 197 | 0.0 | 0.0 | 0.00 | 0.00 | 0.00 | 99 | 1018.7 |
| 20260906071028 | 64 | 245 | 0.0 | 0.0 | 0.00 | 0.00 | 0.00 | 99 | 1018.7 |
| 20260906070524 | 64 | 245 | 0.0 | 1.0 | 0.00 | 0.00 | 0.00 | 99 | 1018.7 |
| 20260906070020 | 64 | 257 | 1.0 | 1.0 | 0.00 | 0.00 | 0.00 | 99 | 1018.7 |
| 20260906065519 | 64 | 245 | 0.0 | 0.0 | 0.00 | 0.00 | 0.00 | 99 | 1018.5 |
| 20260906065015 | 63 | 238 | 0.0 | 0.0 | 0.00 | 0.00 | 0.00 | 99 | 1018.5 |
| 20260906064511 | 64 | 237 | 0.0 | 0.0 | 0.00 | 0.00 | 0.00 | 99 | 1018.7 |
| 20260906064011 | 64 | 237 | 0.0 | 0.0 | 0.00 | 0.00 | 0.00 | 99 | 1018.5 |
| 20260906063506 | 64 | 238 | 0.0 | 0.0 | 0.00 | 0.00 | 0.00 | 99 | 1018.8 |
| 20260906063001 | 64 | 238 | 0.0 | 0.0 | 0.00 | 0.00 | 0.00 | 99 | 1018.8 |
| 20260906062456 | 64 | 239 | 0.0 | 0.0 | 0.00 | 0.00 | 0.00 | 99 | 1018.8 |
| 20260906061951 | 64 | 239 | 0.0 | 0.0 | 0.00 | 0.00 | 0.00 | 99 | 1018.8 |
| 20260906061447 | 64 | 244 | 0.0 | 1.0 | 0.00 | 0.00 | 0.00 | 99 | 1019.3 |
| 20260906060941 | 64 | 242 | 0.0 | 0.0 | 0.00 | 0.00 | 0.00 | 99 | 1019.4 |
| 20260906060438 | 64 | 227 | 0.0 | 0.0 | 0.00 | 0.00 | 0.00 | 99 | 1019.4 |
| 20260906055934 | 64 | 230 | 0.0 | 0.0 | 0.00 | 0.00 | 0.00 | 99 | 1019.3 |
| 20260906055430 | 64 | 230 | 0.0 | 0.0 | 0.00 | 0.00 | 0.00 | 98 | 1019.4 |
| 20260906054925 | 64 | 230 | 0.0 | 0.0 | 0.00 | 0.00 | 0.00 | 98 | 1019.4 |
| 20260906054420 | 64 | 228 | 0.0 | 0.0 | 0.00 | 0.00 | 0.00 | 98 | 1019.3 |
| 20260906053916 | 64 | 223 | 0.0 | 0.0 | 0.00 | 0.00 | 0.00 | 98 | 1019.3 |
| 20260906053412 | 64 | 224 | 0.0 | 0.0 | 0.00 | 0.00 | 0.00 | 98 | 1019.4 |
| 20260906052907 | 64 | 266 | 0.0 | 0.0 | 0.00 | 0.00 | 0.00 | 98 | 1019.3 |
| 20260906052403 | 64 | 203 | 0.0 | 0.0 | 0.00 | 0.00 | 0.00 | 98 | 1019.1 |
| 20260906051900 | 65 | 223 | 0.0 | 0.0 | 0.00 | 0.00 | 0.00 | 98 | 1019.3 |
| 20260906051400 | 65 | 186 | 0.0 | 0.0 | 0.00 | 0.00 | 0.00 | 98 | 1019.3 |
| 20260906050856 | 65 | 194 | 0.0 | 0.0 | 0.00 | 0.00 | 0.00 | 98 | 1019.4 |
| 20260906050350 | 65 | 193 | 0.0 | 0.0 | 0.00 | 0.00 | 0.00 | 98 | 1019.4 |
| 20260906045849 | 65 | 192 | 0.0 | 0.0 | 0.00 | 0.00 | 0.00 | 98 | 1019.5 |
| 20260906045343 | 65 | 251 | 0.0 | 2.0 | 0.00 | 0.00 | 0.00 | 98 | 1019.4 |
| 20260906044840 | 65 | 248 | 1.0 | 1.0 | 0.00 | 0.00 | 0.00 | 98 | 1019.4 |
| 20260906044334 | 65 | 162 | 0.0 | 0.0 | 0.00 | 0.00 | 0.00 | 98 | 1019.3 |
| 20260906043830 | 65 | 162 | 0.0 | 0.0 | 0.00 | 0.00 | 0.00 | 97 | 1019.3 |
| 20260906043326 | 65 | 166 | 0.0 | 0.0 | 0.00 | 0.00 | 0.00 | 97 | 1019.1 |
| 20260906042826 | 65 | 220 | 0.0 | 0.0 | 0.00 | 0.00 | 0.00 | 97 | 1018.9 |
| 20260906042325 | 65 | 251 | 0.0 | 0.0 | 0.00 | 0.00 | 0.00 | 97 | 1018.9 |
| 20260906041821 | 66 | 258 | 0.0 | 0.0 | 0.00 | 0.00 | 0.00 | 97 | 1019.1 |
| 20260906041316 | 66 | 253 | 0.0 | 0.0 | 0.00 | 0.00 | 0.00 | 97 | 1019.1 |
| 20260906040811 | 66 | 240 | 0.0 | 0.0 | 0.00 | 0.00 | 0.00 | 97 | 1019.1 |
| 20260906040306 | 66 | 256 | 0.0 | 1.0 | 0.00 | 0.00 | 0.00 | 97 | 1019.0 |
| 20260906035801 | 66 | 256 | 0.0 | 1.0 | 0.00 | 0.00 | 0.00 | 97 | 1019.3 |
| 20260906035257 | 66 | 258 | 0.0 | 1.0 | 0.00 | 0.00 | 0.00 | 97 | 1019.3 |
| 20260906034757 | 66 | 244 | 0.0 | 1.0 | 0.00 | 0.00 | 0.00 | 96 | 1019.3 |
| 20260906034252 | 66 | 252 | 1.0 | 1.0 | 0.00 | 0.00 | 0.00 | 96 | 1019.3 |
| 20260906033748 | 66 | 242 | 0.0 | 0.0 | 0.00 | 0.00 | 0.00 | 96 | 1019.6 |
| 20260906033247 | 66 | 222 | 0.0 | 0.0 | 0.00 | 0.00 | 0.00 | 96 | 1019.4 |
| 20260906032744 | 67 | 234 | 0.0 | 0.0 | 0.00 | 0.00 | 0.00 | 96 | 1019.6 |
| 20260906032243 | 67 | 207 | 0.0 | 0.0 | 0.00 | 0.00 | 0.00 | 96 | 1019.7 |
| 20260906031739 | 67 | 235 | 0.0 | 0.0 | 0.00 | 0.00 | 0.00 | 96 | 1019.7 |
| 20260906031235 | 67 | 209 | 0.0 | 0.0 | 0.00 | 0.00 | 0.00 | 95 | 1019.8 |
| 20260906030734 | 67 | 228 | 0.0 | 0.0 | 0.00 | 0.00 | 0.00 | 95 | 1019.7 |
| 20260906030229 | 67 | 230 | 0.0 | 0.0 | 0.00 | 0.00 | 0.00 | 95 | 1019.7 |
| 20260906025729 | 67 | 175 | 0.0 | 0.0 | 0.00 | 0.00 | 0.00 | 95 | 1019.9 |
| 20260906025223 | 68 | 172 | 0.0 | 0.0 | 0.00 | 0.00 | 0.00 | 95 | 1019.9 |
| 20260906024722 | 68 | 253 | 1.0 | 1.0 | 0.00 | 0.00 | 0.00 | 94 | 1020.1 |
| 20260906024222 | 68 | 226 | 0.0 | 0.0 | 0.00 | 0.00 | 0.00 | 94 | 1019.9 |
| 20260906023713 | 68 | 244 | 0.0 | 0.0 | 0.00 | 0.00 | 0.00 | 94 | 1020.0 |
| 20260906023212 | 68 | 199 | 0.0 | 0.0 | 0.00 | 0.00 | 0.00 | 94 | 1019.7 |
| 20260906022708 | 68 | 203 | 0.0 | 0.0 | 0.00 | 0.00 | 0.00 | 93 | 1019.9 |
| 20260906022203 | 69 | 260 | 0.0 | 1.0 | 0.00 | 0.00 | 0.00 | 93 | 1019.9 |
| 20260906021700 | 69 | 241 | 0.0 | 1.0 | 0.00 | 0.00 | 0.00 | 93 | 1020.0 |
| 20260906021158 | 69 | 244 | 0.0 | 1.0 | 0.00 | 0.00 | 0.00 | 92 | 1019.8 |
| 20260906020653 | 69 | 180 | 0.0 | 0.0 | 0.00 | 0.00 | 0.00 | 92 | 1019.8 |
| 20260906020148 | 69 | 253 | 0.0 | 1.0 | 0.00 | 0.00 | 0.00 | 92 | 1019.7 |
| 20260906015647 | 69 | 233 | 0.0 | 0.0 | 0.00 | 0.00 | 0.00 | 91 | 1019.6 |
| 20260906015141 | 70 | 216 | 0.0 | 0.0 | 0.00 | 0.00 | 0.00 | 91 | 1019.6 |
| 20260906014640 | 70 | 246 | 0.0 | 0.0 | 0.00 | 0.00 | 0.00 | 91 | 1019.7 |
| 20260906014136 | 70 | 174 | 0.0 | 0.0 | 0.00 | 0.00 | 0.00 | 90 | 1019.7 |
| 20260906013632 | 70 | 218 | 0.0 | 0.0 | 0.00 | 0.00 | 0.00 | 90 | 1019.6 |
| 20260906013128 | 71 | 258 | 0.0 | 1.0 | 0.00 | 0.00 | 0.00 | 90 | 1019.7 |
| 20260906012627 | 71 | 276 | 0.0 | 1.0 | 0.00 | 0.00 | 0.00 | 90 | 1019.6 |
| 20260906012122 | 71 | 248 | 0.0 | 0.0 | 0.00 | 0.00 | 0.00 | 89 | 1019.4 |
| 20260906011618 | 71 | 278 | 0.0 | 0.0 | 0.00 | 0.00 | 0.00 | 89 | 1019.4 |
| 20260906011113 | 71 | 258 | 0.0 | 0.0 | 0.00 | 0.00 | 0.00 | 89 | 1019.3 |
| 20260906010608 | 71 | 168 | 0.0 | 0.0 | 0.00 | 0.00 | 0.00 | 89 | 1019.1 |
| 20260906010104 | 71 | 175 | 0.0 | 0.0 | 0.00 | 0.00 | 0.00 | 88 | 1019.1 |
| 20260906005603 | 71 | 186 | 0.0 | 0.0 | 0.00 | 0.00 | 0.00 | 88 | 1019.3 |
| 20260906005102 | 71 | 251 | 0.0 | 0.0 | 0.00 | 0.00 | 0.00 | 87 | 1019.1 |
| 20260906004601 | 71 | 244 | 0.0 | 0.0 | 0.00 | 0.00 | 0.00 | 87 | 1018.9 |
| 20260906004057 | 72 | 253 | 1.0 | 2.0 | 0.00 | 0.00 | 0.00 | 86 | 1019.0 |
| 20260906003551 | 72 | 201 | 0.0 | 0.0 | 0.00 | 0.00 | 0.00 | 86 | 1018.8 |
| 20260906003048 | 72 | 253 | 1.0 | 1.0 | 0.00 | 0.00 | 0.00 | 85 | 1019.1 |
| 20260906002542 | 73 | 162 | 0.0 | 0.0 | 0.00 | 0.00 | 0.00 | 85 | 1018.8 |
| 20260906002037 | 73 | 262 | 0.0 | 1.0 | 0.00 | 0.00 | 0.00 | 84 | 1018.9 |
| 20260906001532 | 73 | 207 | 0.0 | 0.0 | 0.00 | 0.00 | 0.00 | 83 | 1019.0 |
| 20260906001027 | 73 | 80 | 0.0 | 0.0 | 0.00 | 0.00 | 0.00 | 82 | 1019.0 |
| 20260906000523 | 74 | 163 | 0.0 | 0.0 | 0.00 | 0.00 | 0.00 | 81 | 1018.8 |
| 20260906000018 | 74 | 118 | 0.0 | 0.0 | 0.00 | 0.00 | 0.00 | 81 | 1018.6 |
| 20260905235512 | 74 | 165 | 0.0 | 0.0 | 0.00 | 0.00 | 0.00 | 80 | 1018.8 |
| 20260905235007 | 75 | 148 | 0.0 | 0.0 | 0.00 | 0.00 | 0.00 | 79 | 1018.7 |
| 20260905234503 | 76 | 166 | 0.0 | 0.0 | 0.00 | 0.00 | 0.00 | 78 | 1018.6 |
| 20260905234002 | 76 | 226 | 0.0 | 0.0 | 0.00 | 0.00 | 0.00 | 77 | 1018.6 |
| 20260905233457 | 76 | 255 | 0.0 | 2.0 | 0.00 | 0.00 | 0.00 | 76 | 1018.7 |
| 20260905232955 | 77 | 257 | 1.0 | 3.0 | 0.00 | 0.00 | 0.00 | 75 | 1018.6 |
| 20260905232452 | 77 | 89 | 4.0 | 4.0 | 0.00 | 0.00 | 0.00 | 75 | 1018.6 |
| 20260905231948 | 77 | 158 | 0.0 | 0.0 | 0.00 | 0.00 | 0.00 | 74 | 1018.8 |
| 20260905231443 | 78 | 333 | 0.0 | 0.0 | 0.00 | 0.00 | 0.00 | 74 | 1018.8 |
| 20260905230940 | 78 | 298 | 0.0 | 1.0 | 0.00 | 0.00 | 0.00 | 73 | 1018.7 |
| 20260905230438 | 78 | 218 | 0.0 | 0.0 | 0.00 | 0.00 | 0.00 | 73 | 1018.8 |
| 20260905225937 | 79 | 163 | 0.0 | 2.0 | 0.00 | 0.00 | 0.00 | 73 | 1018.8 |
| 20260905225433 | 79 | 158 | 0.0 | 0.0 | 0.00 | 0.00 | 0.00 | 71 | 1018.9 |
| 20260905224927 | 79 | 229 | 0.0 | 1.0 | 0.00 | 0.00 | 0.00 | 71 | 1018.7 |
| 20260905224423 | 80 | 244 | 1.0 | 2.0 | 0.00 | 0.00 | 0.00 | 69 | 1018.7 |
| 20260905223922 | 80 | 294 | 2.0 | 7.0 | 0.00 | 0.00 | 0.00 | 68 | 1019.0 |
| 20260905223420 | 81 | 239 | 2.0 | 6.0 | 0.00 | 0.00 | 0.00 | 67 | 1018.7 |
| 20260905222915 | 81 | 214 | 4.0 | 6.0 | 0.00 | 0.00 | 0.00 | 66 | 1018.8 |
| 20260905222414 | 81 | 198 | 3.0 | 3.0 | 0.00 | 0.00 | 0.00 | 66 | 1018.6 |
| 20260905221910 | 82 | 257 | 2.0 | 4.0 | 0.00 | 0.00 | 0.00 | 65 | 1018.7 |
| 20260905221407 | 82 | 144 | 1.0 | 7.0 | 0.00 | 0.00 | 0.00 | 65 | 1018.6 |
| 20260905220903 | 82 | 222 | 3.0 | 4.0 | 0.00 | 0.00 | 0.00 | 66 | 1018.5 |
| 20260905220359 | 82 | 222 | 5.0 | 7.0 | 0.00 | 0.00 | 0.00 | 67 | 1018.4 |
| 20260905215857 | 82 | 153 | 1.0 | 6.0 | 0.00 | 0.00 | 0.00 | 66 | 1018.2 |
| 20260905215353 | 82 | 226 | 2.0 | 6.0 | 0.00 | 0.00 | 0.00 | 67 | 1018.1 |
| 20260905214850 | 82 | 237 | 3.0 | 4.0 | 0.00 | 0.00 | 0.00 | 66 | 1018.3 |
| 20260905214345 | 82 | 245 | 2.0 | 6.0 | 0.00 | 0.00 | 0.00 | 64 | 1018.1 |
| 20260905213839 | 83 | 236 | 1.0 | 4.0 | 0.00 | 0.00 | 0.00 | 64 | 1018.3 |
| 20260905213336 | 83 | 246 | 2.0 | 6.0 | 0.00 | 0.00 | 0.00 | 63 | 1018.2 |
| 20260905212835 | 83 | 161 | 3.0 | 7.0 | 0.00 | 0.00 | 0.00 | 63 | 1018.3 |
| 20260905212330 | 83 | 246 | 3.0 | 6.0 | 0.00 | 0.00 | 0.00 | 62 | 1018.1 |
| 20260905211824 | 83 | 274 | 2.0 | 8.0 | 0.00 | 0.00 | 0.00 | 61 | 1018.2 |
| 20260905211320 | 84 | 251 | 1.0 | 9.0 | 0.00 | 0.00 | 0.00 | 61 | 1018.2 |
| 20260905210816 | 83 | 237 | 1.0 | 3.0 | 0.00 | 0.00 | 0.00 | 62 | 1018.0 |
| 20260905210315 | 83 | 235 | 1.0 | 4.0 | 0.00 | 0.00 | 0.00 | 61 | 1018.1 |
| 20260905205814 | 83 | 227 | 4.0 | 7.0 | 0.00 | 0.00 | 0.00 | 60 | 1018.0 |
| 20260905205309 | 84 | 253 | 8.0 | 8.0 | 0.00 | 0.00 | 0.00 | 60 | 1018.2 |
| 20260905204808 | 84 | 243 | 3.0 | 7.0 | 0.00 | 0.00 | 0.00 | 61 | 1018.2 |
| 20260905204305 | 84 | 280 | 4.0 | 6.0 | 0.00 | 0.00 | 0.00 | 62 | 1017.1 |
| 20260905203804 | 84 | 38 | 2.0 | 3.0 | 0.00 | 0.00 | 0.00 | 62 | 1017.7 |
| 20260905203300 | 84 | 279 | 4.0 | 6.0 | 0.00 | 0.00 | 0.00 | 62 | 1018.0 |
| 20260905202755 | 84 | 232 | 6.0 | 9.0 | 0.00 | 0.00 | 0.00 | 60 | 1018.0 |
| 20260905202250 | 84 | 262 | 0.0 | 4.0 | 0.00 | 0.00 | 0.00 | 60 | 1018.0 |
| 20260905201746 | 84 | 244 | 2.0 | 6.0 | 0.00 | 0.00 | 0.00 | 61 | 1017.7 |
| 20260905201241 | 84 | 228 | 4.0 | 6.0 | 0.00 | 0.00 | 0.00 | 59 | 1017.9 |
| 20260905200736 | 83 | 224 | 1.0 | 7.0 | 0.00 | 0.00 | 0.00 | 59 | 1018.1 |
| 20260905200232 | 83 | 101 | 0.0 | 9.0 | 0.00 | 0.00 | 0.00 | 59 | 1018.0 |
| 20260905195729 | 83 | 226 | 5.0 | 9.0 | 0.00 | 0.00 | 0.00 | 60 | 1018.2 |
| 20260905195224 | 83 | 219 | 2.0 | 3.0 | 0.00 | 0.00 | 0.00 | 63 | 1018.1 |
| 20260905194720 | 83 | 257 | 4.0 | 7.0 | 0.00 | 0.00 | 0.00 | 61 | 1018.2 |
| 20260905194219 | 84 | 239 | 4.0 | 8.0 | 0.00 | 0.00 | 0.00 | 58 | 1018.3 |
| 20260905193719 | 83 | 243 | 3.0 | 6.0 | 0.00 | 0.00 | 0.00 | 59 | 1018.3 |
| 20260905193214 | 83 | 196 | 4.0 | 4.0 | 0.00 | 0.00 | 0.00 | 60 | 1018.3 |
| 20260905192709 | 84 | 267 | 3.0 | 8.0 | 0.00 | 0.00 | 0.00 | 58 | 1018.4 |
| 20260905192206 | 84 | 256 | 7.0 | 9.0 | 0.00 | 0.00 | 0.00 | 56 | 1018.6 |
| 20260905191705 | 85 | 266 | 4.0 | 7.0 | 0.00 | 0.00 | 0.00 | 58 | 1018.5 |
| 20260905191203 | 85 | 233 | 4.0 | 10.0 | 0.00 | 0.00 | 0.00 | 56 | 1018.4 |
| 20260905190702 | 84 | 354 | 1.0 | 2.0 | 0.00 | 0.00 | 0.00 | 59 | 1018.3 |
| 20260905190201 | 83 | 279 | 4.0 | 9.0 | 0.00 | 0.00 | 0.00 | 60 | 1018.6 |
| 20260905185700 | 83 | 240 | 5.0 | 10.0 | 0.00 | 0.00 | 0.00 | 59 | 1018.7 |
| 20260905185156 | 83 | 255 | 3.0 | 6.0 | 0.00 | 0.00 | 0.00 | 63 | 1018.7 |
| 20260905184655 | 84 | 210 | 7.0 | 8.0 | 0.00 | 0.00 | 0.00 | 66 | 1018.8 |
| 20260905184154 | 83 | 246 | 1.0 | 2.0 | 0.00 | 0.00 | 0.00 | 68 | 1018.8 |
| 20260905183653 | 83 | 261 | 3.0 | 6.0 | 0.00 | 0.00 | 0.00 | 71 | 1019.0 |
| 20260905183148 | 82 | 265 | 3.0 | 4.0 | 0.00 | 0.00 | 0.00 | 70 | 1018.9 |
| 20260905182648 | 82 | 248 | 2.0 | 4.0 | 0.00 | 0.00 | 0.00 | 72 | 1019.1 |
| 20260905182142 | 81 | 244 | 3.0 | 7.0 | 0.00 | 0.00 | 0.00 | 71 | 1019.1 |
| 20260905181637 | 82 | 252 | 2.0 | 4.0 | 0.00 | 0.00 | 0.00 | 70 | 1019.5 |
| 20260905181136 | 81 | 269 | 1.0 | 7.0 | 0.00 | 0.00 | 0.00 | 69 | 1019.5 |
| 20260905180631 | 82 | 262 | 2.0 | 4.0 | 0.00 | 0.00 | 0.00 | 68 | 1019.4 |
| 20260905180127 | 82 | 124 | 1.0 | 7.0 | 0.00 | 0.00 | 0.00 | 68 | 1019.7 |
| 20260905175626 | 82 | 36 | 1.0 | 1.0 | 0.00 | 0.00 | 0.00 | 71 | 1019.3 |
| 20260905175122 | 81 | 220 | 1.0 | 2.0 | 0.00 | 0.00 | 0.00 | 74 | 1019.6 |
| 20260905174617 | 80 | 236 | 1.0 | 4.0 | 0.00 | 0.00 | 0.00 | 72 | 1019.5 |
| 20260905174112 | 80 | 74 | 1.0 | 2.0 | 0.00 | 0.00 | 0.00 | 75 | 1019.4 |
| 20260905173608 | 80 | 285 | 3.0 | 3.0 | 0.00 | 0.00 | 0.00 | 74 | 1019.5 |
| 20260905173103 | 80 | 267 | 2.0 | 8.0 | 0.00 | 0.00 | 0.00 | 73 | 1019.6 |
| 20260905172602 | 80 | 314 | 3.0 | 3.0 | 0.00 | 0.00 | 0.00 | 75 | 1019.4 |
| 20260905172057 | 80 | 263 | 4.0 | 4.0 | 0.00 | 0.00 | 0.00 | 77 | 1019.5 |
| 20260905171554 | 78 | 112 | 0.0 | 2.0 | 0.00 | 0.00 | 0.00 | 81 | 1019.4 |
| 20260905171050 | 77 | 267 | 3.0 | 4.0 | 0.00 | 0.00 | 0.00 | 82 | 1019.7 |
| 20260905170546 | 76 | 262 | 2.0 | 3.0 | 0.00 | 0.00 | 0.00 | 83 | 1019.7 |
| 20260905170041 | 76 | 251 | 2.0 | 4.0 | 0.00 | 0.00 | 0.00 | 83 | 1019.7 |
| 20260905165536 | 76 | 258 | 2.0 | 3.0 | 0.00 | 0.00 | 0.00 | 84 | 1020.0 |
| 20260905165032 | 75 | 278 | 2.0 | 4.0 | 0.00 | 0.00 | 0.00 | 85 | 1020.0 |
| 20260905164526 | 75 | 280 | 3.0 | 6.0 | 0.00 | 0.00 | 0.00 | 85 | 1020.8 |
| 20260905164021 | 75 | 274 | 1.0 | 3.0 | 0.00 | 0.00 | 0.00 | 86 | 1020.9 |
| 20260905163517 | 75 | 259 | 3.0 | 3.0 | 0.00 | 0.00 | 0.00 | 86 | 1020.9 |
| 20260905163013 | 75 | 300 | 1.0 | 6.0 | 0.00 | 0.00 | 0.00 | 86 | 1020.8 |
| 20260905162509 | 75 | 86 | 0.0 | 1.0 | 0.00 | 0.00 | 0.00 | 87 | 1021.2 |
| 20260905162003 | 74 | 281 | 0.0 | 2.0 | 0.00 | 0.00 | 0.00 | 87 | 1021.3 |
| 20260905161502 | 75 | 268 | 1.0 | 1.0 | 0.00 | 0.00 | 0.00 | 87 | 1021.6 |
| 20260905161000 | 75 | 270 | 0.0 | 1.0 | 0.00 | 0.00 | 0.00 | 87 | 1021.5 |
| 20260905160454 | 75 | 252 | 0.0 | 0.0 | 0.00 | 0.00 | 0.00 | 87 | 1021.7 |
| 20260905155953 | 75 | 256 | 0.0 | 1.0 | 0.00 | 0.00 | 0.00 | 86 | 1021.6 |
| 20260905155448 | 75 | 241 | 0.0 | 0.0 | 0.00 | 0.00 | 0.00 | 86 | 1021.7 |
| 20260905154947 | 75 | 204 | 0.0 | 1.0 | 0.00 | 0.00 | 0.00 | 85 | 1021.9 |
| 20260905154442 | 75 | 207 | 0.0 | 0.0 | 0.00 | 0.00 | 0.00 | 84 | 1021.6 |
| 20260905153938 | 76 | 142 | 0.0 | 0.0 | 0.00 | 0.00 | 0.00 | 84 | 1021.7 |
| 20260905153434 | 76 | 248 | 0.0 | 1.0 | 0.00 | 0.00 | 0.00 | 83 | 1021.9 |
| 20260905152933 | 76 | 97 | 0.0 | 4.0 | 0.00 | 0.00 | 0.00 | 83 | 1021.8 |
| 20260905152433 | 76 | 242 | 3.0 | 3.0 | 0.00 | 0.00 | 0.00 | 83 | 1021.9 |
| 20260905151928 | 76 | 303 | 0.0 | 1.0 | 0.00 | 0.00 | 0.00 | 84 | 1021.8 |
| 20260905151424 | 76 | 133 | 2.0 | 3.0 | 0.00 | 0.00 | 0.00 | 84 | 1021.9 |
| 20260905150924 | 75 | 261 | 2.0 | 4.0 | 0.00 | 0.00 | 0.00 | 85 | 1022.2 |
| 20260905150424 | 74 | 84 | 4.0 | 4.0 | 0.00 | 0.00 | 0.00 | 87 | 1022.0 |
| 20260905145920 | 73 | 52 | 2.0 | 3.0 | 0.00 | 0.00 | 0.00 | 87 | 1022.2 |
| 20260905145416 | 73 | 179 | 4.0 | 7.0 | 0.00 | 0.00 | 0.00 | 87 | 1021.8 |
| 20260905144915 | 74 | 114 | 6.0 | 13.0 | 0.00 | 0.00 | 0.00 | 86 | 1021.8 |
| 20260905144411 | 76 | 90 | 9.0 | 13.0 | 0.00 | 0.00 | 0.00 | 84 | 1021.5 |
| 20260905143909 | 78 | 212 | 4.0 | 7.0 | 0.00 | 0.00 | 0.00 | 83 | 1021.8 |
| 20260905143404 | 78 | 278 | 3.0 | 3.0 | 0.00 | 0.00 | 0.00 | 83 | 1021.1 |
| 20260905142903 | 78 | 214 | 5.0 | 7.0 | 0.00 | 0.00 | 0.00 | 83 | 1020.9 |
| 20260905142401 | 78 | 259 | 4.0 | 4.0 | 0.00 | 0.00 | 0.00 | 83 | 1020.9 |
| 20260905141858 | 78 | 248 | 1.0 | 4.0 | 0.00 | 0.00 | 0.00 | 83 | 1020.8 |
| 20260905141353 | 78 | 240 | 2.0 | 4.0 | 0.00 | 0.00 | 0.00 | 83 | 1020.6 |
| 20260905140849 | 78 | 226 | 1.0 | 2.0 | 0.00 | 0.00 | 0.00 | 83 | 1020.6 |
| 20260905140349 | 78 | 272 | 3.0 | 4.0 | 0.00 | 0.00 | 0.00 | 83 | 1020.5 |
| 20260905135847 | 78 | 215 | 4.0 | 4.0 | 0.00 | 0.00 | 0.00 | 82 | 1020.8 |
| 20260905135344 | 78 | 149 | 0.0 | 2.0 | 0.00 | 0.00 | 0.00 | 82 | 1020.8 |
| 20260905134839 | 79 | 252 | 1.0 | 4.0 | 0.00 | 0.00 | 0.00 | 81 | 1020.5 |
| 20260905134337 | 79 | 259 | 3.0 | 4.0 | 0.00 | 0.00 | 0.00 | 81 | 1020.6 |
| 20260905133832 | 79 | 247 | 2.0 | 3.0 | 0.00 | 0.00 | 0.00 | 81 | 1020.6 |
| 20260905133328 | 79 | 303 | 0.0 | 3.0 | 0.00 | 0.00 | 0.00 | 81 | 1020.9 |
| 20260905132826 | 80 | 267 | 0.0 | 0.0 | 0.00 | 0.00 | 0.00 | 81 | 1020.9 |
| 20260905132323 | 79 | 258 | 0.0 | 1.0 | 0.00 | 0.00 | 0.00 | 81 | 1020.6 |
| 20260905131822 | 79 | 335 | 1.0 | 1.0 | 0.00 | 0.00 | 0.00 | 81 | 1020.6 |
| 20260905131318 | 79 | 334 | 0.0 | 2.0 | 0.00 | 0.00 | 0.00 | 81 | 1020.8 |
| 20260905130813 | 79 | 246 | 1.0 | 2.0 | 0.00 | 0.00 | 0.00 | 81 | 1020.9 |
| 20260905130312 | 79 | 275 | 1.0 | 2.0 | 0.00 | 0.00 | 0.00 | 82 | 1020.8 |
| 20260905125808 | 78 | 273 | 1.0 | 2.0 | 0.00 | 0.00 | 0.00 | 82 | 1020.9 |
| 20260905125305 | 78 | 253 | 0.0 | 2.0 | 0.00 | 0.00 | 0.00 | 83 | 1020.9 |
| 20260905124758 | 77 | 270 | 0.0 | 1.0 | 0.00 | 0.00 | 0.00 | 84 | 1021.2 |
| 20260905124254 | 77 | 271 | 0.0 | 2.0 | 0.00 | 0.00 | 0.00 | 85 | 1021.0 |
| 20260905123749 | 76 | 257 | 0.0 | 1.0 | 0.00 | 0.00 | 0.00 | 88 | 1021.1 |
| 20260905123247 | 75 | 226 | 0.0 | 1.0 | 0.00 | 0.00 | 0.00 | 90 | 1020.9 |
| 20260905122746 | 74 | 242 | 0.0 | 1.0 | 0.00 | 0.00 | 0.00 | 92 | 1020.6 |
| 20260905122245 | 73 | 270 | 0.0 | 0.0 | 0.00 | 0.00 | 0.00 | 94 | 1020.9 |
| 20260905121741 | 72 | 240 | 1.0 | 2.0 | 0.00 | 0.00 | 0.00 | 96 | 1020.8 |
| 20260905121237 | 71 | 257 | 1.0 | 2.0 | 0.00 | 0.00 | 0.00 | 97 | 1020.5 |
| 20260905120736 | 71 | 169 | 1.0 | 1.0 | 0.00 | 0.00 | 0.00 | 98 | 1020.8 |
| 20260905120230 | 70 | 255 | 2.0 | 4.0 | 0.00 | 0.00 | 0.00 | 99 | 1020.6 |
| 20260905115725 | 69 | 254 | 1.0 | 3.0 | 0.00 | 0.00 | 0.00 | 99 | 1020.8 |
| 20260905115219 | 69 | 255 | 1.0 | 2.0 | 0.00 | 0.00 | 0.00 | 99 | 1020.5 |
| 20260905114715 | 68 | 218 | 1.0 | 2.0 | 0.00 | 0.00 | 0.00 | 99 | 1020.8 |
| 20260905114213 | 68 | 274 | 2.0 | 3.0 | 0.00 | 0.00 | 0.00 | 99 | 1020.5 |
| 20260905113712 | 68 | 263 | 2.0 | 3.0 | 0.00 | 0.00 | 0.00 | 99 | 1020.5 |
| 20260905113208 | 67 | 248 | 1.0 | 2.0 | 0.00 | 0.00 | 0.00 | 99 | 1020.5 |
| 20260905112708 | 66 | 245 | 3.0 | 3.0 | 0.00 | 0.00 | 0.00 | 99 | 1020.4 |
| 20260905112203 | 66 | 268 | 2.0 | 2.0 | 0.00 | 0.00 | 0.00 | 99 | 1020.5 |
| 20260905111703 | 65 | 274 | 0.0 | 0.0 | 0.00 | 0.00 | 0.00 | 99 | 1020.5 |
| 20260905111203 | 66 | 261 | 0.0 | 1.0 | 0.00 | 0.00 | 0.00 | 99 | 1020.4 |
| 20260905110702 | 66 | 226 | 0.0 | 0.0 | 0.00 | 0.00 | 0.00 | 99 | 1020.4 |
| 20260905110157 | 66 | 244 | 0.0 | 1.0 | 0.00 | 0.00 | 0.00 | 99 | 1020.5 |
| 20260905105652 | 66 | 162 | 1.0 | 3.0 | 0.00 | 0.00 | 0.00 | 99 | 1020.6 |
| 20260905105151 | 66 | 233 | 3.0 | 3.0 | 0.00 | 0.00 | 0.00 | 99 | 1020.3 |
| 20260905104646 | 66 | 249 | 3.0 | 3.0 | 0.00 | 0.00 | 0.00 | 99 | 1020.3 |
| 20260905104142 | 66 | 253 | 1.0 | 2.0 | 0.00 | 0.00 | 0.00 | 99 | 1020.4 |